South St. Paul, MN

3:12 AM CDT on July 24, 2017 (GMT -0500)
South Saint Paul Municipal-Fleming

Weather History for KSGS - April, 2013

Change the Weather History Date:

Friday, April 5, 2013

  Actual Average (KSTP) Record (KSTP)
Temperature  
Mean Temperature 36 °F -  
Max Temperature 43 °F 50 °F 75 °F (2004)
Min Temperature 29 °F 32 °F 18 °F (2002)
Degree Days  
Heating Degree Days 29    
Moisture  
Dew Point 24 °F    
Average Humidity 66    
Maximum Humidity 99    
Minimum Humidity 36    
Precipitation  
Precipitation 0.04 in - - ()
Sea Level Pressure  
Sea Level Pressure 30.14 in    
Wind  
Wind Speed 6 mph (ESE)    
Max Wind Speed 13 mph    
Max Gust Speed 18 mph    
Visibility 9 miles    
Events Rain , Snow    
Averages and records for this station are not official NWS values.
T = Trace of Precipitation, MM = Missing Value Source: NWS Daily Summary

Daily Weather History Graph

Daily Weather History Graph

Search for Another Location

Airport or City:

Trip Planner

Search our weather history database for the weather conditions in past years. The results will help you decide how hot, cold, wet, or windy it might be!

Date:

Astronomy

Apr. 05, 2013 Rise Set
Actual Time 6:45 AM CDT 7:45 PM CDT
Civil Twilight 6:15 AM CDT 8:15 PM CDT
Nautical Twilight 5:39 AM CDT 8:50 PM CDT
Astronomical Twilight 5:02 AM CDT 9:28 PM CDT
Moon 4:04 AM CDT (4/5) 2:58 PM CDT (4/5)
Length of Visible Light 13h 59m
Length of Day
13h 00m
Waning Crescent, 23% of the Moon is Illuminated
Apr 5
Waning Crescent
Apr 10
New
Apr 18
First Quarter
Apr 25
Full
May 2
Last Quarter

Hourly Weather History & Observations

Time (CDT) Temp. Windchill Dew Point Humidity Pressure Visibility Wind Dir Wind Speed Gust Speed Precip Events Conditions
12:12 AM 36.3 °F 31.6 °F 21.7 °F 56% 30.17 in 10.0 mi NNW 5.8 mph - N/A   Clear
12:33 AM 35.8 °F 30.1 °F 21.2 °F 55% 30.17 in 10.0 mi NNW 6.9 mph - N/A   Clear
12:53 AM 35.4 °F 30.5 °F 21.2 °F 56% 30.18 in 10.0 mi North 5.8 mph - N/A   Clear
1:12 AM 35.2 °F 29.5 °F 21.0 °F 56% 30.18 in 10.0 mi North 6.9 mph - N/A   Clear
1:33 AM 34.7 °F 28.8 °F 21.2 °F 58% 30.19 in 10.0 mi North 6.9 mph - N/A   Clear
1:52 AM 34.0 °F 27.2 °F 21.2 °F 60% 30.19 in 10.0 mi North 8.1 mph - N/A   Clear
2:12 AM 33.3 °F 27.1 °F 21.2 °F 61% 30.19 in 10.0 mi North 6.9 mph - N/A   Clear
2:33 AM 33.3 °F 27.1 °F 21.0 °F 61% 30.19 in 10.0 mi North 6.9 mph - N/A   Clear
2:52 AM 32.9 °F 27.5 °F 20.7 °F 61% 30.19 in 10.0 mi North 5.8 mph - N/A   Clear
3:13 AM 32.0 °F 26.4 °F 20.3 °F 62% 30.19 in 10.0 mi North 5.8 mph - N/A   Clear
3:32 AM 32.0 °F 27.5 °F 20.1 °F 62% 30.20 in 10.0 mi North 4.6 mph - N/A   Clear
3:52 AM 32.0 °F 26.4 °F 19.4 °F 60% 30.20 in 10.0 mi North 5.8 mph - N/A   Clear
4:13 AM 31.5 °F 28.1 °F 19.2 °F 61% 30.22 in 10.0 mi North 3.5 mph - N/A   Clear
4:32 AM 31.1 °F 26.4 °F 18.9 °F 61% 30.22 in 10.0 mi North 4.6 mph - N/A   Clear
4:53 AM 30.9 °F 27.5 °F 18.7 °F 61% 30.23 in 10.0 mi North 3.5 mph - N/A   Clear
5:12 AM 30.7 °F 27.3 °F 18.3 °F 60% 30.23 in 10.0 mi North 3.5 mph - N/A   Clear
5:32 AM 30.4 °F 26.9 °F 18.1 °F 60% 30.23 in 10.0 mi North 3.5 mph - N/A   Clear
5:53 AM 30.2 °F 26.7 °F 18.1 °F 61% 30.24 in 10.0 mi North 3.5 mph - N/A   Clear
6:12 AM 29.8 °F 26.3 °F 18.1 °F 62% 30.23 in 10.0 mi North 3.5 mph - N/A   Clear
6:32 AM 30.2 °F 25.4 °F 17.4 °F 59% 30.23 in 10.0 mi NNE 4.6 mph - N/A   Clear
6:52 AM 29.7 °F 24.7 °F 17.6 °F 61% 30.23 in 10.0 mi North 4.6 mph - N/A   Clear
7:12 AM 29.8 °F 26.3 °F 17.1 °F 59% 30.24 in 10.0 mi NNE 3.5 mph - N/A   Clear
7:33 AM 30.7 °F 27.3 °F 17.1 °F 57% 30.24 in 10.0 mi NNE 3.5 mph - N/A   Clear
7:52 AM 31.5 °F 28.1 °F 16.9 °F 55% 30.24 in 10.0 mi NE 3.5 mph - N/A   Clear
8:12 AM 32.0 °F 26.4 °F 16.7 °F 53% 30.24 in 10.0 mi NE 5.8 mph - N/A   Clear
8:33 AM 32.7 °F 27.3 °F 17.1 °F 53% 30.24 in 10.0 mi ENE 5.8 mph - N/A   Clear
8:52 AM 33.4 °F 28.1 °F 17.2 °F 52% 30.24 in 10.0 mi East 5.8 mph - N/A   Clear
9:13 AM 34.2 °F 29.0 °F 18.0 °F 52% 30.23 in 10.0 mi ESE 5.8 mph - N/A   Clear
9:33 AM 34.7 °F 28.8 °F 18.5 °F 52% 30.22 in 10.0 mi East 6.9 mph - N/A   Clear
9:52 AM 35.8 °F 31.9 °F 19.0 °F 51% 30.23 in 10.0 mi ESE 4.6 mph - N/A   Clear
10:13 AM 36.5 °F 31.8 °F 19.0 °F 49% 30.22 in 10.0 mi SE 5.8 mph - N/A   Clear
10:32 AM 37.4 °F 33.8 °F 19.4 °F 48% 30.22 in 10.0 mi SE 4.6 mph - N/A   Clear
10:52 AM 38.3 °F 31.9 °F 19.2 °F 46% 30.22 in 10.0 mi SSE 9.2 mph - N/A   Clear
11:13 AM 39.2 °F 35.0 °F 19.8 °F 46% 30.24 in 10.0 mi SSE 5.8 mph - N/A   Clear
11:32 AM 39.4 °F 35.2 °F 19.0 °F 44% 30.23 in 10.0 mi South 5.8 mph - N/A   Clear
11:53 AM 39.7 °F 34.9 °F 19.2 °F 44% 30.22 in 10.0 mi SSE 6.9 mph - N/A   Clear
12:12 PM 40.3 °F 37.1 °F 19.0 °F 43% 30.20 in 10.0 mi SE 4.6 mph - N/A   Clear
12:32 PM 41.2 °F 36.6 °F 19.8 °F 42% 30.19 in 10.0 mi SSE 6.9 mph - N/A   Clear
12:53 PM 42.1 °F 38.4 °F 17.8 °F 38% 30.18 in 10.0 mi SE 5.8 mph - N/A   Scattered Clouds
1:12 PM 43.3 °F 37.2 °F 19.0 °F 38% 30.15 in 10.0 mi SE 11.5 mph - N/A   Scattered Clouds
1:33 PM 43.3 °F 39.2 °F 17.8 °F 36% 30.15 in 10.0 mi SSE 6.9 mph - N/A   Scattered Clouds
1:52 PM 43.0 °F 39.5 °F 19.2 °F 39% 30.16 in 10.0 mi SSE 5.8 mph - N/A   Mostly Cloudy
2:13 PM 42.8 °F 41.1 °F 18.7 °F 38% 30.16 in 10.0 mi SSE 3.5 mph - N/A   Scattered Clouds
2:33 PM 42.4 °F 37.0 °F 19.6 °F 40% 30.16 in 10.0 mi South 9.2 mph - N/A   Scattered Clouds
2:52 PM 42.3 °F 37.3 °F 20.3 °F 42% 30.15 in 10.0 mi South 8.1 mph - N/A   Clear
3:13 PM 42.3 °F 36.8 °F 21.0 °F 43% 30.14 in 10.0 mi SE 9.2 mph - N/A   Scattered Clouds
3:33 PM 40.6 °F 36.7 °F 26.2 °F 57% 30.13 in 7.0 mi South 5.8 mph 9.2 mph N/A   Mostly Cloudy
3:52 PM 40.3 °F 36.3 °F 25.9 °F 56% 30.13 in 10.0 mi SE 5.8 mph - N/A   Overcast
4:12 PM 38.7 °F 32.9 °F 29.8 °F 71% 30.12 in 7.0 mi SSW 8.1 mph - N/A   Light Drizzle
4:32 PM 35.6 °F 29.9 °F 32.0 °F 87% 30.10 in 3.0 mi SSE 6.9 mph - N/A Rain Light Rain
4:53 PM 34.7 °F 28.1 °F 32.5 °F 92% 30.10 in 3.0 mi SSE 8.1 mph - N/A   Overcast
5:13 PM 33.8 °F 28.6 °F 32.9 °F 96% 30.07 in 1.8 mi SE 5.8 mph - N/A Snow Light Snow
5:32 PM 33.6 °F 29.4 °F 32.9 °F 97% 30.09 in 1.0 mi South 4.6 mph - 0.02 in Snow Light Snow
5:53 PM 33.6 °F 27.5 °F 32.9 °F 97% 30.07 in 1.5 mi SSE 6.9 mph - 0.03 in Snow Light Snow
6:13 PM 33.4 °F 29.1 °F 32.9 °F 98% 30.06 in 4.0 mi SE 4.6 mph - N/A Rain Light Rain
6:32 PM 33.8 °F 28.6 °F 33.4 °F 99% 30.05 in 7.0 mi ESE 5.8 mph - 0.01 in   Overcast
6:53 PM 34.2 °F 29.0 °F 33.8 °F 99% 30.05 in 10.0 mi SE 5.8 mph - 0.01 in   Overcast
7:12 PM 34.2 °F 29.0 °F 33.8 °F 99% 30.04 in 7.0 mi SE 5.8 mph - N/A Snow Light Snow
7:32 PM 34.3 °F 27.7 °F 34.0 °F 99% 30.03 in 10.0 mi ESE 8.1 mph - N/A   Mostly Cloudy
7:53 PM 34.7 °F 28.1 °F 34.2 °F 98% 30.02 in 10.0 mi SE 8.1 mph - N/A Rain Light Rain
8:12 PM 34.7 °F 27.5 °F 34.2 °F 98% 30.03 in 10.0 mi ESE 9.2 mph - N/A   Overcast
8:33 PM 35.1 °F 29.3 °F 34.3 °F 97% 30.02 in 10.0 mi ESE 6.9 mph - N/A   Mostly Cloudy
8:53 PM 35.6 °F 29.2 °F 33.8 °F 93% 30.02 in 10.0 mi ESE 8.1 mph - N/A   Mostly Cloudy
9:12 PM 35.6 °F 30.7 °F 33.4 °F 92% 30.02 in 10.0 mi ESE 5.8 mph - N/A   Mostly Cloudy
9:33 PM 35.6 °F 29.9 °F 33.1 °F 91% 30.01 in 10.0 mi ESE 6.9 mph - N/A   Overcast
9:52 PM 35.6 °F 28.6 °F 32.9 °F 90% 30.00 in 10.0 mi ESE 9.2 mph - N/A   Overcast
10:12 PM 35.8 °F 28.8 °F 32.7 °F 89% 29.98 in 10.0 mi ESE 9.2 mph - N/A   Mostly Cloudy
10:32 PM 36.1 °F 29.9 °F 32.4 °F 86% 29.97 in 10.0 mi ESE 8.1 mph - N/A   Scattered Clouds
10:52 PM 36.5 °F 30.3 °F 32.4 °F 85% 29.95 in 10.0 mi SE 8.1 mph - N/A   Mostly Cloudy
11:13 PM 36.7 °F 30.5 °F 32.5 °F 85% 29.94 in 10.0 mi SE 8.1 mph - N/A   Mostly Cloudy
11:33 PM 36.7 °F 28.4 °F 32.4 °F 84% 29.92 in 10.0 mi ESE 12.7 mph 17.3 mph N/A   Overcast
11:52 PM 36.7 °F 29.9 °F 32.2 °F 84% 29.91 in 10.0 mi SE 9.2 mph 18.4 mph N/A   Mostly Cloudy